Preview of NWS' New Version of Forecast
This preview is not operational and should not be used for support decisions.

Regional Weather Roundup (RWR)

Issued by Gray - Portland, ME (GYX)

                            
000
ASUS41 KGYX 210006
RWRGYX
WEATHER ROUNDUP FOR MAINE AND NEW HAMPSHIRE
NATIONAL WEATHER SERVICE GRAY ME
800 PM EDT TUE AUG 20 2019

MEZ002-005-006-010-012-015-018-020-021-024-026-027-029-210100-
MAINE
  
CITY           SKY/WX    TMP DP  RH WIND       PRES   REMARKS
PORTLAND       FAIR      73  56  54 S6        30.03R                  
6HR MIN TEMP:  73; 6HR MAX TEMP:  85;                                

SANFORD        FAIR      71  56  58 S3        30.04S                  
BAR HARBOR     FAIR      70  60  70 SW3       30.03R                  
WISCASSET      FAIR      68  59  73 CALM      30.04R                  
6HR MIN TEMP:  68; 6HR MAX TEMP:  85;                                

ROCKLAND       FAIR      66  59  78 CALM      30.04R                  
FRYEBURG       FAIR      68  62  81 CALM      30.02S                  
6HR MIN TEMP:  68; 6HR MAX TEMP:  85;                                

LEWISTONAUBURN FAIR      72  60  66 S6        30.03R                  
AUGUSTA        FAIR      73  59  61 S5        30.03R                  
6HR MIN TEMP:  73; 6HR MAX TEMP:  82;                                

WATERVILLE     FAIR      70  61  73 SW3       30.00R HAZE             
BANGOR         FAIR      69  60  73 S3        30.02R                  
6HR MIN TEMP:  68; 6HR MAX TEMP:  81; 6HR PCP: TRACE;                

GREENVILLE     NOT AVBL                                               
MILLINOCKET    FAIR      71  59  65 CALM      30.00F                  
6HR MIN TEMP:  70; 6HR MAX TEMP:  81;                                

HOULTON        FAIR      65  59  81 S5        29.97S                  
6HR MIN TEMP:  63; 6HR MAX TEMP:  81;                                

PRESQUE ISLE   FAIR      69  58  67 SW7       29.97F                  
6HR MIN TEMP:  69; 6HR MAX TEMP:  81;                                

FRENCHVILLE    FAIR      70  50  49 W9        29.96S                  
6HR MIN TEMP:  69; 6HR MAX TEMP:  78;                                

CARIBOU        FAIR      71  53  52 SW3       29.95S                  
6HR MIN TEMP:  71; 6HR MAX TEMP:  81;                                

$$

NHZ002-005-008-009-011-012-014-210100-
NEW HAMPSHIRE
  
CITY           SKY/WX    TMP DP  RH WIND       PRES   REMARKS
PORTSMOUTH     MOCLDY    71  58  62 SE7       30.02S                  
ROCHESTER      FAIR      72  58  61 S5        30.03S                  
6HR MIN TEMP:  72; 6HR MAX TEMP:  86;                                

NASHUA         FAIR      75  63  66 CALM      30.03F                  
MANCHESTER     MOCLDY    82  55  39 S3        30.01F                  
6HR MIN TEMP:  82; 6HR MAX TEMP:  88;                                

CONCORD        FAIR      73  59  61 S3        30.03S                  
6HR MIN TEMP:  73; 6HR MAX TEMP:  86;                                

LACONIA        FAIR      71  63  75 CALM      30.03F                  
PLYMOUTH       FAIR      67  61  81 CALM      30.03R                  
BERLIN         NOT AVBL                                               
WHITEFIELD     FAIR      67  59  75 CALM      30.04F                  
6HR MIN TEMP:  67; 6HR MAX TEMP:  81;                                

JAFFREY        FAIR      69  62  78 CALM      30.08S                  
6HR MIN TEMP:  69; 6HR MAX TEMP:  84;                                

KEENE          FAIR      70  64  81 CALM      30.04S                  
LEBANON        FAIR      69  58  67 SE3       30.03R                  
6HR MIN TEMP:  69; 6HR MAX TEMP:  88;                                

MT WASHINGTON  PTCLDY    52  48  87 W16         N/A                   
                   6HR MAX TEMP:  60;                                

$$

VTZ005-007-008-210100-
VERMONT
  
CITY           SKY/WX    TMP DP  RH WIND       PRES   REMARKS
ST JOHNSBURY     N/A     71  62  73 MISG      30.01R                  
MONTPELIER     FAIR      68  57  68 SW3       30.08R                  
BURLINGTON     FAIR      77  55  46 S5        29.99S                  
$$

MAZ007-012-024-CTZ003-RIZ002-NYZ038-NYZ072-210100-
SOUTHERN NEW ENGLAND AND NY
  
CITY           SKY/WX    TMP DP  RH WIND       PRES   REMARKS
BOSTON         FAIR      74  62  66 E3        30.03S                  
WORCESTER      FAIR      74  59  59 CALM      30.07F                  
NANTUCKET      FAIR      67  65  93 SE6       30.06S                  
PROVIDENCE     FAIR      75  60  59 S6        30.03F                  
HARTFORD       FAIR      81  57  43 CALM      30.02F                  
ALBANY         FAIR      80  64  58 SE3       30.01F                  
NEW YORK CITY  FAIR      82  62  50 S10       30.02S                  
$$

ANZ081-ANZ082-ANZ150-NHZ014-MEZ023>029-210100-
COASTAL MARINE OBSERVATIONS
  
STATION/POSITION TIME  TEMP    WIND        PRES    WAVE
                       AIR SEA DIR/SP/G            HT/PER
                 (UTC) (F)     (DEG/KT/KT) (MB)    (FT/S)
MATINICUS ROCK   2350   68                 1016.5S
ISLE OF SHOALS   2300   71     180/ 15/ 16 1016.3S
JEFFREYS LEDGE   2338      67                N/A     2/10
CASHES LEDGE BUO 2350   66 65  190/  6/  8 1017.8R   2/ 8
GEORGES BANK BUO 2350   69 72  290/  8/ 10 1018.4S   3/ 9
$$

.............KEY..............
   WCI - WIND CHILL
   TC  - TEMPERATURE IN CELSIUS
   VSB - VISIBILITY IN MILES
   HX  - HEAT INDEX
   FAIR- INDICATES FEW OR NO CLOUDS BELOW 12,000 FT, WITH NO 
         SIGNIFICANT WEATHER AND/OR OBSTRUCTIONS TO VISIBILITY.